Weather observations for the past three days for
Gainesville, Gainesville Municipal Airport
Imperial (Metric)
Date Time (cdt) Wind (mph) Vis. (mi.) Weather Sky Cond. Temperature (ºF) Relative Humidity Wind Chill (°F) Heat Index (°F) Pressure Precipitation (in)
Air Dwpt 6 hour altimeter (in) sea level (mb) 1 hr 3 hr 6 hr
Max. Min.
13 23:55 Calm 10.00 Fair CLR 77 67.6 73% 79 30 0.0
13 23:35 SE 5 10.00 Fair CLR 77.4 67.3 71% 79 29.98 0.0
13 23:15 E 5 10.00 Fair CLR 77.4 66.6 69% 79 29.98 0.0
13 22:55 SE 5 10.00 Fair CLR 78.3 66.4 67% 80 29.98 0.0
13 22:35 SE 3 10.00 Fair CLR 79 66.2 65% 81 29.96 0.0
13 22:15 SE 3 10.00 Fair CLR 78.6 66.6 67% 81 29.95 0.0
13 21:55 SE 3 10.00 Fair CLR 78.8 67.6 69% 81 29.94 0.0
13 21:35 SE 5 10.00 Fair CLR 80.2 67.6 66% 83 29.93 0.0
13 21:15 SE 5 10.00 Fair CLR 79.9 67.6 66% 82 29.92 0.0
13 20:55 SE 3 10.00 Fair CLR 81.7 66.2 60% 84 29.92 0.0
13 20:35 S 3 10.00 Fair CLR 82.8 66 57% 85 29.92 0.0
13 20:15 S 5 10.00 Fair CLR 84.4 65.5 53% 86 29.91 0.0
13 19:55 S 5 10.00 Fair CLR 86.2 65.5 50% 88 29.92 0.0
13 19:35 S 5 10.00 Fair CLR 87.4 65.1 48% 89 29.92 0.0
13 19:15 SE 7 10.00 Fair CLR 88.5 66 47% 91 29.92 0.0
13 18:55 SE 8 10.00 Fair CLR 89.2 64.9 90.7 87.6 45% 91 29.92 0.0
13 18:35 S 9 10.00 Fair CLR 89.8 65.3 44% 92 29.92 0.0
13 18:15 S 8 10.00 Fair CLR 90.1 66.2 45% 93 29.93 0.0
13 17:55 S 9 10.00 Fair CLR 90 66 45% 93 29.94 0.0
13 17:35 SE 7 10.00 Fair CLR 90.3 65.8 44% 93 29.94 0.0
13 17:15 SE 8 10.00 Fair CLR 90.3 65.8 44% 93 29.95 0.0
13 16:55 S 7 10.00 Fair CLR 90.5 66.9 46% 94 29.95 0.0
13 16:35 SE 9 10.00 Fair CLR 90.5 67.1 46% 94 29.95 0.0
13 16:15 SE 10 10.00 Fair CLR 90.5 68.7 49% 95 29.96 0.0
13 15:55 SE 8 10.00 Fair CLR 90.1 68.5 49% 94 29.96 0.0
13 15:35 SE 8 10.00 Fair CLR 89.8 68.9 50% 94 29.97 0.0
13 15:15 S 12 10.00 Fair CLR 89.8 69.3 51% 95 29.97 0.0
13 14:55 S 12 10.00 Partly Cloudy SCT046 89.6 68.9 51% 94 29.98 0.0
13 14:35 SE 9 10.00 Partly Cloudy SCT046 89.4 69.4 52% 94 29.98 0.0
13 14:15 SE 6 10.00 Partly Cloudy SCT044 88.3 69.1 53% 93 29.99 0.0
13 13:55 SE 3 10.00 Partly Cloudy SCT044 89.1 68.5 51% 93 30 0.0
13 13:35 E 7 10.00 Partly Cloudy SCT044 87.8 69.8 55% 93 30 0.0
13 12:55 S 6 10.00 Partly Cloudy SCT042 SCT049 87.8 68.2 88.3 69.8 52% 92 30.01 0.0
13 12:35 S 7 10.00 Partly Cloudy SCT040 SCT049 87.3 68.2 53% 91 30.01 0.0
13 12:15 S 8 10.00 Partly Cloudy SCT040 85.5 68.5 57% 89 30.01 0.0
13 11:55 S 6 10.00 Partly Cloudy SCT036 84.7 68.4 58% 88 30.01 0.0
13 11:35 S 8 10.00 Partly Cloudy SCT034 85.6 68.7 57% 89 30.01 0.0
13 11:15 S 9 10.00 Fair CLR 84 69.1 61% 88 30.01 0.0
13 10:55 SW 10 10.00 Fair CLR 84 69.3 61% 88 30.01 0.0
13 10:35 SW 9 10.00 Fair CLR 83.5 69.4 63% 87 30.01 0.0
13 10:15 SW 12 10.00 Fair CLR 82.9 70 65% 87 30.01 0.0
13 09:55 S 13 10.00 Fair CLR 82.4 69.8 66% 86 30 0.0
13 09:35 S 10 10.00 Fair CLR 81.5 69.1 66% 85 30.01 0.0
13 09:15 S 12 10.00 Fair CLR 80.1 69.1 69% 83 30.01 0.0
13 08:55 S 9 10.00 Fair CLR 78.4 69.8 75% 81 30 0.0
13 08:35 S 9 10.00 Fair CLR 77.4 70.9 81% 79 30 0.0
13 08:15 S 8 10.00 Fair CLR 75.7 72 88% 76 30 0.0
13 07:55 S 5 10.00 Fair CLR 73.9 73.2 98% 29.99 0.0
13 07:35 S 5 7.00 Fair CLR 72.3 72.3 100% 29.99 0.0
13 07:15 Calm 5.00 Fair CLR 70.7 70.7 100% 29.98 0.0
13 06:55 Calm 5.00 Fair CLR 69.8 69.8 74.1 69.1 100% 29.98 0.0
13 06:35 Calm 7.00 Fair CLR 70 70 100% 29.98 0.0
13 06:15 Calm 7.00 Fair CLR 69.4 69.4 100% 29.97 0.0
13 05:55 Calm 7.00 Fair CLR 69.8 69.8 100% 29.96 0.0
13 05:35 Calm 10.00 Fair CLR 70 70 100% 29.96 0.0
13 05:15 Calm 10.00 Fair CLR 70 70 100% 29.96 0.0
13 04:55 Calm 10.00 Fair CLR 70 70 100% 29.95 0.0
13 04:35 SE 3 10.00 Fair CLR 70.3 70.3 100% 29.95 0.0
13 04:15 Calm 10.00 Fair CLR 69.1 69.1 100% 29.95 0.0
13 03:55 SE 3 10.00 Fair CLR 69.3 69.3 100% 29.95 0.0
13 03:35 S 3 10.00 Fair CLR 70.7 70.7 100% 29.95 0.0
13 03:15 Calm 10.00 Fair CLR 71.4 70.7 98% 29.95 0.0
13 02:55 Calm 10.00 Fair CLR 72.1 70.2 94% 29.95 0.0
13 02:35 Calm 10.00 Fair CLR 72.3 70 92% 29.96 0.0
13 02:15 Calm 10.00 Fair CLR 72.1 70.2 94% 29.96 0.0
13 01:55 SE 3 10.00 Fair CLR 72.7 69.8 91% 29.96 0.0
13 01:35 Calm 10.00 Fair CLR 72.7 69.8 91% 29.96 0.0
13 01:15 SE 3 10.00 Fair CLR 73.6 69.3 86% 29.97 0.0
13 00:55 SE 3 10.00 Fair CLR 74.3 69.3 86.7 73.6 84% 29.97 0.0
13 00:35 SE 3 10.00 Fair CLR 74.3 69.1 84% 29.98 0.0
13 00:15 SE 3 10.00 Fair CLR 73.6 69.8 88% 29.98 0.0
12 23:55 S 3 10.00 Fair CLR 73.9 69.8 87% 29.98 0.0
12 23:35 SE 5 10.00 Fair CLR 74.3 70 86% 29.98 0.0
12 23:15 SE 5 10.00 Fair CLR 74.3 70.2 87% 29.98 0.0
12 22:55 SE 5 10.00 Fair CLR 75.4 69.8 83% 76 29.97 0.0
12 22:35 SE 5 10.00 Fair CLR 75.6 69.8 82% 76 29.97 0.0
12 22:15 SE 6 10.00 Fair CLR 77 68.9 76% 79 29.96 0.0
12 21:55 SE 6 10.00 Fair CLR 77.4 68.9 75% 79 29.96 0.0
12 21:35 SE 5 10.00 Fair CLR 78.4 68.2 71% 81 29.95 0.0
12 21:15 SE 5 10.00 Fair CLR 79.3 67.6 68% 82 29.95 0.0
12 20:55 SE 6 10.00 Fair CLR 80.2 67.3 65% 83 29.94 0.0
12 20:35 SE 5 10.00 Fair CLR 81.3 67.1 62% 84 29.94 0.0
12 20:15 SE 5 10.00 Fair CLR 82.9 66.6 58% 85 29.93 0.0
12 19:55 SE 5 10.00 Fair CLR 83.7 66.9 57% 86 29.93 0.0
12 19:35 SE 7 10.00 Fair CLR 85.1 65.8 53% 87 29.93 0.0
12 19:15 SE 7 10.00 Fair CLR 86.2 65.7 50% 88 29.93 0.0
12 18:55 SE 9 10.00 Fair CLR 86.9 64.9 88.5 84.2 48% 89 29.93 0.0
12 18:35 SE 7 10.00 Fair CLR 87.1 65.7 49% 89 29.93 0.0
12 18:15 SE 7 10.00 Fair CLR 87.3 65.3 48% 89 29.94 0.0
12 17:55 SE 6 10.00 Fair CLR 87.6 65.1 47% 90 29.94 0.0
12 17:35 SE 7 10.00 Fair CLR 87.4 65.5 48% 90 29.95 0.0
12 17:15 SE 7 10.00 Fair CLR 88.2 65.7 47% 90 29.95 0.0
12 16:55 S 7 10.00 Fair CLR 88 65.3 47% 90 29.95 0.0
12 16:35 Calm 10.00 Partly Cloudy SCT049 88.2 65.7 47% 90 29.96 0.0
12 16:15 S 3 10.00 Partly Cloudy SCT049 88.2 66 48% 91 29.97 0.0
12 15:55 SE 8 10.00 Partly Cloudy SCT048 87.6 65.7 48% 90 29.98 0.0
12 15:35 SE 8 10.00 Partly Cloudy SCT048 87.4 65.7 48% 90 29.98 0.0
12 15:15 SE 8 10.00 Partly Cloudy SCT046 SCT060 86.9 66.2 50% 89 29.99 0.0
12 14:55 Calm 10.00 Fair CLR 87.3 67.1 51% 90 29.99 0.0
12 14:35 E 7 10.00 Partly Cloudy SCT045 SCT060 86.5 66 51% 89 30 0.0
12 14:15 S 5 10.00 Partly Cloudy SCT045 SCT060 86 65.7 51% 88 30 0.0
12 13:55 SE 3 10.00 Mostly Cloudy BKN043 BKN050 84.9 66.2 54% 87 30.01 0.0
12 13:35 E 8 10.00 Partly Cloudy SCT042 SCT050 SCT055 85.8 66.6 53% 88 30.01 0.0
12 12:55 E 5 10.00 Partly Cloudy SCT042 84.6 66.6 85.1 68.4 55% 87 30.03 0.0
12 12:35 Calm 10.00 Partly Cloudy SCT040 SCT065 84.4 66 54% 87 30.03 0.0
12 12:15 S 6 10.00 Partly Cloudy SCT038 SCT065 84 66.9 57% 87 30.04 0.0
12 11:55 Calm 10.00 Partly Cloudy SCT038 83.3 66.2 56% 86 30.04 0.0
12 11:35 SE 3 10.00 Partly Cloudy SCT038 83.3 66.6 57% 86 30.04 0.0
12 11:15 SE 3 10.00 Fair CLR 82.8 66.6 58% 85 30.04 0.0
12 10:55 E 3 10.00 Fair CLR 81.7 65.1 57% 84 30.04 0.0
12 10:35 SE 5 10.00 Fair CLR 80.4 65.7 61% 82 30.05 0.0
12 10:15 E 3 10.00 Fair CLR 79.7 66 63% 82 30.05 0.0
12 09:55 S 6 10.00 Fair CLR 78.8 65.5 64% 81 30.05 0.0
12 09:35 S 5 10.00 Fair CLR 77.9 65.3 65% 80 30.05 0.0
12 09:15 SE 5 10.00 Fair CLR 77.2 66 69% 79 30.04 0.0
12 08:55 S 6 10.00 Fair CLR 75.4 66.4 74% 77 30.04 0.0
12 08:35 SE 5 10.00 Fair CLR 74.3 67.3 79% 30.03 0.0
12 08:15 S 5 10.00 Fair CLR 72.5 67.5 84% 30.02 0.0
12 07:55 S 3 10.00 Fair CLR 71.1 67.3 88% 30.02 0.0
12 07:35 Calm 10.00 Partly Cloudy SCT044 69.6 68.2 95% 30.02 0.0
12 07:15 E 5 10.00 Fair CLR 68.7 66.9 94% 30.02 0.0
12 06:55 E 3 10.00 Partly Cloudy SCT038 68.4 66.4 70.7 66.2 93% 30.02 0.0
12 06:35 E 3 10.00 Mostly Cloudy BKN038 68.2 66.6 95% 30.01 0.0
12 06:15 Calm 10.00 Partly Cloudy SCT038 67.5 67.1 99% 30.01 0.0
12 05:55 Calm 10.00 Partly Cloudy SCT040 66.4 66.4 100% 30 0.0
12 05:35 Calm 10.00 Fair CLR 67.1 67.1 100% 30 0.0
12 05:15 Calm 10.00 Partly Cloudy SCT039 68.2 66.9 96% 30 0.0
12 04:55 N 5 10.00 Partly Cloudy SCT039 68 67.1 97% 30 0.0
12 04:35 NE 3 10.00 Fair CLR 68 68 100% 30 0.0
12 04:15 Calm 10.00 Fair CLR 68.9 68.7 99% 29.99 0.0
12 03:55 Calm 10.00 Fair CLR 69.4 68.9 98% 29.99 0.0
12 03:35 Calm 10.00 Fair CLR 68.9 68.9 100% 29.99 0.0
12 03:15 E 3 10.00 Fair CLR 68.9 68.9 100% 29.99 0.0
12 02:55 NE 3 10.00 Fair CLR 69.3 69.3 100% 30 0.0
12 02:35 NE 5 10.00 Partly Cloudy SCT050 70 70 100% 30 0.0
12 02:15 NE 5 10.00 Mostly Cloudy BKN050 70 70 100% 30 0.0
12 01:55 N 5 10.00 Partly Cloudy SCT048 69.3 69.3 100% 30.01 0.0
12 01:35 N 6 10.00 Partly Cloudy SCT048 69.3 69.3 100% 30 0.0
12 01:15 N 5 10.00 Fair CLR 69.8 69.8 100% 30 0.0
12 00:55 NE 5 10.00 Fair CLR 69.8 69.8 79.3 69.4 100% 30 0.0
12 00:35 Calm 10.00 Fair CLR 70.7 70.3 99% 30 0.0
12 00:15 NE 3 10.00 Fair CLR 71.1 70.5 98% 30 0.0
11 23:55 Calm 10.00 Fair CLR 72 70.3 95% 30 0.0
11 23:35 SE 3 10.00 Fair CLR 72.9 70 91% 30 0.0
11 23:15 E 3 10.00 Fair CLR 73.2 70.5 91% 30 0.0
11 22:55 Calm 10.00 Fair CLR 73.4 70.5 91% 29.98 0.0
11 22:35 Calm 10.00 Fair CLR 73 71.1 94% 29.98 0.0
11 22:15 Calm 10.00 Fair CLR 74.5 69.1 83% 29.97 0.0
11 21:55 Calm 10.00 Fair CLR 74.5 69.3 84% 29.96 0.0
11 21:35 Calm 10.00 Fair CLR 75.2 68.2 79% 76 29.95 0.0
11 21:15 E 3 10.00 Fair CLR 75.4 68 78% 76 29.94 0.0
11 20:55 E 3 10.00 Fair CLR 76.1 67.8 76% 77 29.94 0.0
11 20:35 E 5 10.00 Fair CLR 76.1 68.9 78% 77 29.93 0.0
11 20:15 E 3 10.00 Fair CLR 76.8 68 74% 78 29.93 0.0
11 19:55 E 5 10.00 Fair CLR 77.9 67.5 70% 80 29.92 0.0
11 19:35 E 5 10.00 Fair CLR 78.8 67.3 68% 81 29.92 0.0
11 19:15 E 6 10.00 Fair CLR 79.2 67.1 67% 81 29.92 0.0
11 18:55 E 6 10.00 Fair CLR 79.3 67.1 81.3 79 66% 82 29.92 0.0
11 18:35 NE 6 10.00 Partly Cloudy SCT037 SCT045 79.3 67.1 66% 82 29.93 0.0
11 18:15 NE 7 10.00 Overcast BKN039 OVC045 79.7 67.1 65% 82 29.93 0.0
11 17:55 E 6 10.00 Overcast BKN039 BKN050 OVC060 79.9 66.2 63% 82 29.94 0.0
11 17:35 E 6 10.00 Overcast SCT037 BKN050 OVC070 80.1 67.3 65% 82 29.94 0.0
11 17:15 E 6 10.00 Mostly Cloudy BKN037 BKN045 BKN050 80.6 67.5 64% 83 29.94 0.0
11 16:55 E 7 10.00 Mostly Cloudy SCT033 BKN042 80.6 67.3 64% 83 29.95 0.0
11 16:35 E 8 7.00 Mostly Cloudy SCT031 BKN042 81 67.5 64% 84 29.95 0.0
11 16:15 E 9 10.00 Mostly Cloudy BKN031 BKN037 BKN050 81.3 68.2 64% 84 29.95 0.0
11 15:55 E 8 10.00 Partly Cloudy SCT027 SCT035 SCT050 81 68.5 66% 84 29.95 0.0
11 15:35 E 7 10.00 Partly Cloudy SCT027 80.6 68.4 66% 83 29.95 0.0
11 15:15 E 9 10.00 Fair CLR 80.2 69.1 69% 83 29.95 0.0
11 14:55 SE 7 10.00 Partly Cloudy SCT029 SCT035 SCT042 79.9 69.4 71% 83 29.96 0.0
11 14:35 SE 5 10.00 Overcast OVC030 80.1 69.3 70% 83 29.96 0.0
11 14:15 SE 7 10.00 Mostly Cloudy BKN029 BKN035 80.1 68.7 68% 83 29.97 0.0
11 13:55 E 7 10.00 Partly Cloudy SCT029 SCT035 SCT070 80.6 68 66% 83 29.98 0.0
11 13:35 SE 7 10.00 Partly Cloudy SCT033 SCT070 80.2 67.8 66% 83 29.98 0.0
11 13:15 SE 7 10.00 Partly Cloudy SCT033 SCT045 SCT070 79.9 67.1 65% 82 29.98 0.0
11 12:55 SE 7 10.00 Partly Cloudy SCT030 SCT039 SCT047 79.2 66.4 79.5 70.2 65% 81 29.98 0.0
11 12:35 SE 7 10.00 Mostly Cloudy SCT030 BKN040 BKN095 78.8 66.4 66% 81 29.99 0.0
11 12:15 SE 8 10.00 Partly Cloudy SCT031 SCT038 79.2 65.7 63% 81 29.99 0.0
11 11:55 SE 7 10.00 Partly Cloudy SCT027 SCT035 79.3 65.8 63% 81 29.99 0.0
11 11:35 SE 8 10.00 Mostly Cloudy BKN024 BKN029 78.6 65.3 64% 81 29.98 0.0
11 11:15 E 6 10.00 Overcast OVC022 77.9 63.9 62% 80 29.98 0.0
11 10:55 E 6 10.00 Overcast OVC020 78.3 64.6 63% 80 29.98 0.0
11 10:35 SE 6 10.00 Mostly Cloudy SCT020 BKN038 77 65.5 68% 79 29.98 0.0
11 10:15 SE 8 10.00 Overcast BKN020 BKN029 OVC040 77 65.1 67% 79 29.97 0.0
11 09:55 SE 7 10.00 Mostly Cloudy BKN020 BKN033 76.6 64.8 67% 78 29.97 0.0
11 09:35 E 9 10.00 Mostly Cloudy BKN020 BKN070 75.2 63.7 68% 77 29.97 0.0
11 09:15 E 7 10.00 Overcast BKN020 OVC070 74.3 64.4 71% 29.97 0.0
11 08:55 SE 6 10.00 Overcast OVC022 72.5 64.6 76% 29.98 0.0
11 08:35 SE 6 10.00 Overcast OVC022 72 64.8 78% 29.97 0.0
11 08:15 SE 6 10.00 Overcast OVC022 71.6 64.8 79% 29.97 0.0
11 07:55 E 6 10.00 Overcast BKN024 OVC032 71.6 64.6 79% 29.97 0.0
11 07:35 E 5 10.00 Overcast OVC032 70.9 65.1 82% 29.97 0.0
11 07:15 E 5 10.00 Overcast SCT025 OVC032 70.7 66.2 86% 29.97 0.0
11 06:55 E 5 10.00 Overcast OVC030 70.2 66.4 70.2 66.4 88% 29.96 0.0
11 06:35 E 6 10.00 Overcast OVC032 69.8 66.9 91% 29.96 0.0
11 06:15 E 5 10.00 Overcast OVC030 69.4 66.7 91% 29.96 0.0
11 05:55 E 7 10.00 Overcast OVC028 69.4 66.6 91% 29.96 0.0
11 05:35 E 5 7.00 Overcast OVC028 69.1 67.1 93% 29.96 0.0
11 05:15 Calm 10.00 Overcast OVC028 68.9 67.1 94% 29.96 0.0
11 04:55 E 3 10.00 Overcast OVC028 68.5 67.1 95% 29.96 0.0
11 04:35 Calm 10.00 Overcast OVC028 68.5 67.6 97% 29.96 0.0
11 04:15 Calm 10.00 Mostly Cloudy BKN032 68 67.1 97% 29.96 0.0
11 03:55 NE 3 10.00 Partly Cloudy SCT032 67.3 66.6 98% 29.95 0.0
11 03:35 NE 5 10.00 Fair CLR 67.1 65.8 96% 29.95 0.0
11 03:15 E 3 10.00 Fair CLR 67.1 65.3 94% 29.95 0.0
11 02:55 Calm 10.00 Fair CLR 66.9 65.5 95% 29.95 0.0
11 02:35 E 3 10.00 Fair CLR 67.5 65.1 92% 29.95 0.0
11 02:15 NE 3 10.00 Fair CLR 67.3 65.3 93% 29.95 0.0
11 01:55 Calm 10.00 Fair CLR 68.2 64.4 88% 29.95 0.0
11 01:35 Calm 10.00 Fair CLR 68.4 64 86% 29.95 0.0
11 01:15 Calm 10.00 Fair CLR 68.4 64.4 87% 29.95 0.0
11 00:55 E 3 10.00 Fair CLR 68.4 64 77.2 68.4 86% 29.95 0.0
11 00:35 Calm 10.00 Fair CLR 68.9 64 85% 29.95 0.0
11 00:15 E 3 10.00 Fair CLR 69.3 63.1 81% 29.95 0.0
Date Time (cdt) Wind (mph) Vis. (mi.) Weather Sky Cond. Air Dwpt Max. Min. Relative Humidity Wind Chill (°F) Heat Index (°F) altimeter (in) sea level (mb) 1 hr 3 hr 6 hr
6 hour
Temperature (ºF) Pressure Precipitation (in)